�N����,����,�~����,�C��,���x,�C��,����,���ϕ���,�ő�u�ԕ���,�ő厞����,���˗�,�I�_���x,�n�����x,�ő啗���N��,DTYPE
"19/09/22","00:10",0.2,20.3,94.9,1012.8,294.5,0.8,1.2,313.9,0.00,19.5,22.0,"00:03:20",1
"19/09/22","00:20",0.0,20.4,95.1,1012.6,283.7,0.7,0.9,308.9,0.00,19.6,22.1,"00:10:48",1
"19/09/22","00:30",0.0,20.3,94.8,1012.6,292.5,0.8,1.8,328.8,0.00,19.5,22.0,"00:29:44",1
"19/09/22","00:40",0.0,20.4,95.0,1012.3,309.4,1.0,1.7,318.5,0.00,19.6,22.1,"00:39:28",1
"19/09/22","00:50",0.0,20.4,94.9,1012.6,326.5,1.2,1.9,318.0,0.00,19.6,21.9,"00:47:04",1
"19/09/22","01:00",0.2,20.5,94.9,1012.3,303.0,1.2,2.5,323.7,0.00,19.7,21.8,"00:56:08",1
"19/09/22","01:10",0.0,20.4,94.9,1012.1,295.9,1.1,1.7,327.5,0.00,19.6,22.0,"01:07:28",1
"19/09/22","01:20",0.0,20.4,94.7,1012.3,280.3,1.0,1.9,300.0,0.00,19.6,22.1,"01:13:04",1
"19/09/22","01:30",0.0,20.5,94.9,1012.6,288.6,1.0,1.6,309.5,0.00,19.7,22.1,"01:24:40",1
"19/09/22","01:40",0.0,20.6,94.7,1012.6,310.2,1.2,2.1,314.1,0.00,19.8,21.9,"01:33:28",1
"19/09/22","01:50",0.0,20.5,94.2,1012.6,317.8,1.0,2.4,337.3,0.00,19.6,22.1,"01:49:28",1
"19/09/22","02:00",0.2,20.6,93.7,1012.3,329.6,1.2,1.8,324.6,0.00,19.6,22.1,"01:50:32",1
"19/09/22","02:10",0.0,20.7,93.1,1012.1,313.3,0.6,2.2,173.8,0.00,19.6,22.2,"02:06:24",1
"19/09/22","02:20",0.0,21.0,92.4,1012.1,342.8,0.6,1.3,338.9,0.00,19.8,22.0,"02:10:56",1
"19/09/22","02:30",0.0,21.0,92.0,1011.9,55.1,0.6,1.9,320.7,0.00,19.7,21.9,"02:26:24",1
"19/09/22","02:40",0.0,21.3,90.8,1011.9,41.7,1.0,2.2,104.5,0.00,19.8,21.9,"02:33:52",1
"19/09/22","02:50",0.0,21.6,89.1,1011.9,25.9,0.7,1.8,98.7,0.00,19.8,21.9,"02:44:40",1
"19/09/22","03:00",0.2,21.8,87.4,1011.6,346.4,0.6,2.2,345.6,0.00,19.7,21.9,"02:55:36",1
"19/09/22","03:10",0.0,21.9,85.6,1011.4,50.1,0.6,1.6,121.3,0.00,19.4,21.9,"03:04:16",1
"19/09/22","03:20",0.0,22.1,84.1,1011.6,22.1,0.6,1.7,357.9,0.00,19.3,21.9,"03:16:00",1
"19/09/22","03:30",0.0,22.2,83.0,1011.2,335.8,0.5,1.8,24.2,0.00,19.2,21.9,"03:20:02",1
"19/09/22","03:40",0.0,22.2,82.0,1011.2,52.0,0.6,1.9,94.3,0.00,19.0,21.9,"03:36:56",1
"19/09/22","03:50",0.0,22.4,81.1,1011.4,49.5,1.0,3.6,106.8,0.00,19.0,21.9,"03:47:20",1
"19/09/22","04:00",0.0,22.6,79.9,1011.2,80.8,1.1,2.5,116.2,0.00,19.0,22.0,"03:53:20",1
"19/09/22","04:10",0.2,22.6,79.1,1011.2,73.0,0.8,2.6,96.6,0.00,18.8,22.1,"04:01:44",1
"19/09/22","04:20",0.0,22.6,78.5,1011.2,91.2,0.8,3.5,99.3,0.00,18.7,22.0,"04:13:12",1
"19/09/22","04:30",0.0,22.6,78.3,1011.4,120.7,0.6,2.4,62.2,0.00,18.7,22.0,"04:22:08",1
"19/09/22","04:40",0.0,22.6,78.0,1010.9,79.3,1.0,2.8,132.1,0.00,18.6,21.8,"04:37:36",1
"19/09/22","04:50",0.0,22.7,76.9,1011.2,66.6,1.5,3.5,104.9,0.00,18.5,21.8,"04:45:52",1
"19/09/22","05:00",0.0,22.8,75.2,1010.9,70.2,1.3,3.4,105.5,0.00,18.2,21.9,"04:56:00",1
"19/09/22","05:10",0.0,22.8,74.1,1010.7,57.4,1.0,2.5,319.3,0.00,18.0,22.0,"05:03:52",1
"19/09/22","05:20",0.0,22.7,73.9,1010.7,80.2,1.0,2.7,106.6,0.00,17.8,21.7,"05:10:56",1
"19/09/22","05:30",0.2,22.8,73.6,1010.7,85.8,1.0,2.8,111.0,0.00,17.9,21.8,"05:25:04",1
"19/09/22","05:40",0.0,22.7,74.3,1010.7,120.7,0.7,2.5,106.7,0.00,17.9,21.8,"05:38:48",1
"19/09/22","05:50",0.0,22.7,74.6,1010.9,169.3,0.6,1.9,106.1,0.00,18.0,21.8,"05:48:08",1
"19/09/22","06:00",0.0,22.7,75.1,1010.4,27.9,0.7,3.5,16.9,0.00,18.1,21.8,"05:58:48",1
"19/09/22","06:10",0.0,22.8,74.3,1010.9,87.1,0.8,2.6,140.3,0.00,18.0,22.0,"06:08:40",1
"19/09/22","06:20",0.0,22.8,74.3,1010.2,102.8,1.1,2.9,107.0,0.00,18.0,21.9,"06:16:40",1
"19/09/22","06:30",0.0,23.0,73.5,1010.7,99.0,1.5,3.1,119.3,0.00,18.1,21.7,"06:26:32",1
"19/09/22","06:40",0.0,23.1,72.5,1010.7,73.8,1.3,3.2,97.4,0.00,17.9,21.8,"06:30:56",1
"19/09/22","06:50",0.0,23.0,72.7,1010.7,105.3,1.1,4.1,108.7,0.00,17.9,21.9,"06:48:48",1
"19/09/22","07:00",0.2,23.3,72.1,1010.9,99.7,1.5,2.9,110.4,0.02,18.0,21.9,"06:58:32",1
"19/09/22","07:10",0.0,23.7,71.7,1010.4,98.2,1.2,2.9,126.4,0.04,18.3,22.0,"07:01:20",1
"19/09/22","07:20",0.0,23.7,70.6,1010.2,94.8,1.8,4.4,105.9,0.03,18.1,22.0,"07:18:24",1
"19/09/22","07:30",0.0,23.6,71.1,1010.0,100.1,2.0,4.3,147.7,0.04,18.1,22.1,"07:23:28",1
"19/09/22","07:40",0.0,23.6,71.8,1010.0,98.4,1.6,3.4,98.5,0.08,18.3,21.8,"07:35:28",1
"19/09/22","07:50",0.0,23.8,70.8,1010.4,110.1,1.8,3.9,123.0,0.07,18.2,21.8,"07:40:40",1
"19/09/22","08:00",0.0,23.6,71.2,1010.0,97.8,1.7,3.3,116.3,0.05,18.1,21.9,"07:59:28",1
"19/09/22","08:10",0.2,23.9,70.6,1010.0,107.3,1.5,4.5,115.1,0.08,18.3,22.1,"08:03:04",1
"19/09/22","08:20",0.0,23.8,70.6,1009.7,114.5,2.0,4.2,135.1,0.06,18.2,22.0,"08:19:12",1
"19/09/22","08:30",0.0,23.8,70.7,1009.5,109.0,1.5,3.3,109.9,0.06,18.2,22.0,"08:22:56",1
"19/09/22","08:40",0.0,24.1,70.4,1009.7,90.1,1.2,2.7,112.6,0.08,18.4,22.0,"08:35:52",1
"19/09/22","08:50",0.0,24.4,69.5,1010.0,104.6,1.5,3.3,122.2,0.16,18.5,22.2,"08:45:04",1
"19/09/22","09:00",0.0,24.5,69.8,1009.7,90.5,1.2,2.7,98.0,0.13,18.7,22.2,"08:52:00",1
"19/09/22","09:10",0.0,24.7,68.6,1009.7,91.1,1.3,3.4,140.0,0.11,18.6,22.4,"09:09:12",1
"19/09/22","09:20",0.0,24.6,68.9,1009.5,102.0,1.8,3.7,122.6,0.08,18.6,22.5,"09:14:08",1
"19/09/22","09:30",0.0,24.3,69.3,1009.7,101.1,1.8,4.9,110.9,0.04,18.4,22.4,"09:28:24",1
"19/09/22","09:40",0.2,24.2,70.0,1010.0,115.2,2.0,4.1,103.0,0.02,18.4,22.6,"09:30:16",1
"19/09/22","09:50",0.0,24.2,70.4,1009.7,93.3,1.5,4.3,81.9,0.02,18.5,22.5,"09:47:36",1
"19/09/22","10:00",0.0,24.1,70.8,1009.7,80.3,1.1,2.7,109.4,0.01,18.5,22.5,"09:53:36",1
"19/09/22","10:10",0.0,24.1,71.2,1009.7,89.1,1.2,2.9,116.5,0.01,18.6,22.4,"10:05:28",1
"19/09/22","10:20",0.0,24.2,71.4,1009.7,96.3,1.3,2.9,113.0,0.02,18.7,22.2,"10:10:16",1
"19/09/22","10:30",0.0,24.1,71.5,1009.3,107.5,1.3,3.2,123.7,0.01,18.7,22.5,"10:28:16",1
"19/09/22","10:40",0.0,24.1,71.5,1009.5,78.9,1.2,2.7,98.1,0.01,18.7,22.5,"10:37:28",1
"19/09/22","10:50",0.0,24.2,71.5,1009.5,81.9,1.5,3.5,88.9,0.02,18.8,22.5,"10:44:00",1
"19/09/22","11:00",0.0,24.2,71.9,1009.0,86.1,1.3,4.4,110.3,0.04,18.9,22.5,"10:56:08",1
"19/09/22","11:10",0.2,24.2,71.7,1008.6,99.9,2.0,6.0,115.2,0.04,18.8,22.2,"11:09:20",1
"19/09/22","11:20",0.0,24.3,71.6,1008.8,106.0,2.1,5.2,75.5,0.05,18.9,22.5,"11:14:08",1
"19/09/22","11:30",0.0,24.3,71.9,1009.0,88.3,1.6,3.7,108.9,0.03,18.9,22.6,"11:20:08",1
"19/09/22","11:40",0.0,24.2,72.7,1008.8,82.5,0.8,2.7,116.2,0.02,19.0,22.7,"11:34:56",1
"19/09/22","11:50",0.0,24.4,72.3,1008.6,102.3,1.6,3.6,110.4,0.02,19.1,22.3,"11:48:32",1
"19/09/22","12:00",0.0,24.5,72.4,1008.3,105.1,1.7,4.0,107.3,0.03,19.3,22.5,"11:50:08",1
"19/09/22","12:10",0.0,24.6,72.2,1008.3,104.5,2.1,5.0,116.2,0.03,19.3,22.7,"12:06:24",1
"19/09/22","12:20",0.0,24.5,72.5,1008.3,101.1,1.8,4.2,76.8,0.03,19.3,22.6,"12:14:48",1
"19/09/22","12:30",0.0,24.5,72.7,1008.1,101.0,1.6,3.4,122.1,0.03,19.3,22.6,"12:20:24",1
"19/09/22","12:40",0.0,24.6,72.7,1007.4,104.7,1.5,5.6,133.5,0.04,19.4,22.5,"12:38:24",1
"19/09/22","12:50",0.0,24.8,72.9,1007.4,110.1,1.7,3.3,113.4,0.05,19.7,22.5,"12:48:00",1
"19/09/22","13:00",0.0,24.9,73.1,1006.7,109.7,2.1,5.4,79.5,0.06,19.8,22.5,"12:58:24",1
"19/09/22","13:10",0.2,25.1,72.5,1006.7,108.0,2.0,4.2,103.2,0.08,19.8,22.6,"13:01:52",1
"19/09/22","13:20",0.0,25.3,72.9,1006.4,114.5,1.6,5.0,99.5,0.09,20.1,22.6,"13:14:16",1
"19/09/22","13:30",0.0,25.3,72.3,1006.4,118.4,2.0,4.9,115.1,0.09,20.0,22.7,"13:25:36",1
"19/09/22","13:40",0.0,25.2,71.3,1006.4,96.9,2.1,4.9,100.2,0.07,19.7,22.8,"13:32:48",1
"19/09/22","13:50",0.0,25.0,71.8,1006.4,94.5,2.1,4.1,128.2,0.03,19.6,22.7,"13:42:24",1
"19/09/22","14:00",0.0,24.9,72.6,1006.4,105.1,1.6,4.5,121.7,0.02,19.7,22.8,"13:51:04",1
"19/09/22","14:10",0.0,24.9,73.3,1006.4,99.4,1.7,3.3,106.9,0.02,19.8,22.8,"14:09:28",1
"19/09/22","14:20",0.0,24.8,73.6,1006.2,96.3,1.3,4.3,108.8,0.01,19.8,22.9,"14:12:00",1
"19/09/22","14:30",0.0,24.9,73.8,1006.0,86.2,1.2,3.7,70.6,0.01,19.9,22.9,"14:21:04",1
"19/09/22","14:40",0.0,24.9,74.1,1005.7,100.9,1.5,3.1,101.4,0.03,20.0,22.7,"14:31:12",1
"19/09/22","14:50",0.0,25.0,74.4,1005.5,109.7,1.5,3.3,101.7,0.03,20.2,22.9,"14:46:40",1
"19/09/22","15:00",0.0,25.0,74.9,1005.5,106.1,1.6,4.0,100.2,0.02,20.3,22.9,"14:51:52",1
"19/09/22","15:10",0.0,25.0,74.9,1005.5,94.5,1.2,3.4,83.1,0.03,20.3,23.0,"15:03:44",1
"19/09/22","15:20",0.0,25.0,75.5,1005.0,112.5,1.5,3.3,92.8,0.03,20.4,23.0,"15:13:44",1
"19/09/22","15:30",0.0,25.0,75.8,1005.0,98.0,1.3,3.9,97.4,0.02,20.5,22.7,"15:21:12",1
"19/09/22","15:40",0.0,24.9,76.2,1005.0,86.9,1.6,3.7,117.4,0.01,20.5,23.0,"15:33:36",1
"19/09/22","15:50",0.2,24.8,76.7,1004.8,98.8,1.1,3.6,102.3,0.00,20.5,23.0,"15:46:48",1
"19/09/22","16:00",0.0,24.7,77.6,1005.0,101.1,1.1,2.8,116.1,0.00,20.6,23.1,"15:58:40",1
"19/09/22","16:10",0.0,24.2,80.1,1004.8,60.6,0.7,1.8,99.7,0.00,20.6,23.0,"16:05:24",1
"19/09/22","16:20",0.0,23.8,82.6,1005.2,19.5,0.6,2.2,60.7,0.00,20.7,22.9,"16:13:12",1
"19/09/22","16:30",0.0,23.5,84.8,1005.5,82.8,0.2,1.6,109.9,0.00,20.8,22.8,"16:28:56",1
"19/09/22","16:40",0.0,23.2,86.6,1005.5,151.0,0.7,2.1,118.6,0.00,20.9,22.7,"16:32:08",1
"19/09/22","16:50",0.0,22.9,88.1,1005.0,197.3,0.2,1.8,183.0,0.00,20.9,22.7,"16:42:16",1
"19/09/22","17:00",0.0,23.0,88.8,1005.0,6.7,0.8,1.9,340.7,0.02,21.1,22.9,"16:53:12",1
"19/09/22","17:10",0.0,22.8,89.6,1005.0,292.9,0.7,1.6,337.2,0.00,21.0,22.7,"17:02:16",1
"19/09/22","17:20",0.2,22.9,90.4,1004.8,268.8,0.3,1.2,347.3,0.00,21.3,22.9,"17:10:08",1
"19/09/22","17:30",0.0,22.9,90.6,1004.5,272.1,0.5,1.1,234.5,0.00,21.3,22.8,"17:22:40",1
"19/09/22","17:40",0.0,22.9,90.8,1005.0,289.4,0.5,1.1,301.0,0.00,21.4,22.6,"17:32:48",1
"19/09/22","17:50",0.0,22.9,91.1,1005.0,314.2,0.5,1.6,323.2,0.00,21.4,22.9,"17:46:48",1
"19/09/22","18:00",0.0,22.9,91.4,1004.8,285.8,0.5,1.0,305.1,0.00,21.5,22.9,"17:56:40",1
"19/09/22","18:10",0.0,22.9,91.3,1004.3,229.7,0.3,1.1,271.1,0.00,21.4,22.9,"18:09:52",1
"19/09/22","18:20",0.0,22.8,91.6,1004.5,244.4,0.3,1.1,288.1,0.00,21.4,22.8,"18:10:08",1
"19/09/22","18:30",0.2,22.8,91.7,1004.5,211.3,0.5,1.2,228.8,0.00,21.4,22.8,"18:28:48",1
"19/09/22","18:40",0.0,22.8,91.7,1004.5,177.0,0.3,1.6,60.7,0.00,21.4,23.0,"18:36:40",1
"19/09/22","18:50",0.0,22.9,91.8,1004.5,280.3,0.5,1.2,277.1,0.00,21.5,22.8,"18:47:36",1
"19/09/22","19:00",0.0,22.9,91.7,1004.8,267.7,0.5,1.1,307.4,0.00,21.5,22.8,"18:56:40",1
"19/09/22","19:10",0.0,23.0,91.7,1003.8,10.5,0.3,1.3,77.0,0.00,21.6,22.7,"19:06:56",1
"19/09/22","19:20",0.0,23.0,91.6,1003.8,309.6,0.5,1.1,39.6,0.00,21.6,22.7,"19:11:44",1
"19/09/22","19:30",0.0,22.9,91.9,1004.3,260.6,0.8,2.1,238.1,0.00,21.6,22.8,"19:24:48",1
"19/09/22","19:40",0.2,22.9,92.1,1004.3,284.4,0.7,1.4,296.0,0.00,21.6,22.7,"19:33:28",1
"19/09/22","19:50",0.0,22.9,92.4,1004.3,287.5,0.7,1.2,284.7,0.00,21.6,22.7,"19:40:32",1
"19/09/22","20:00",0.0,22.9,92.5,1004.3,325.2,0.8,1.4,342.8,0.00,21.7,22.7,"19:57:20",1
"19/09/22","20:10",0.0,22.9,92.8,1004.3,283.8,1.0,2.5,321.7,0.00,21.7,22.6,"20:02:08",1
"19/09/22","20:20",0.0,22.8,92.9,1004.1,313.3,0.8,1.7,328.5,0.00,21.6,22.7,"20:18:00",1
"19/09/22","20:30",0.0,22.8,93.1,1004.3,309.5,0.8,1.2,325.1,0.00,21.7,22.8,"20:21:12",1
"19/09/22","20:40",0.0,22.8,93.2,1004.1,272.1,0.5,1.0,303.7,0.00,21.7,22.7,"20:38:08",1
"19/09/22","20:50",0.0,22.9,93.3,1004.3,288.6,1.0,2.5,327.3,0.00,21.8,22.7,"20:49:12",1
"19/09/22","21:00",0.2,22.8,93.4,1003.8,303.9,0.7,2.1,325.2,0.00,21.7,22.7,"20:50:24",1
"19/09/22","21:10",0.0,22.9,93.7,1003.8,280.5,0.5,1.1,266.0,0.00,21.9,22.7,"21:00:02",1
"19/09/22","21:20",0.0,22.9,93.7,1003.8,297.3,0.7,1.3,319.4,0.00,21.9,22.7,"21:16:00",1
"19/09/22","21:30",0.0,22.9,93.9,1003.8,275.9,0.7,1.2,260.3,0.00,21.9,22.8,"21:23:36",1
"19/09/22","21:40",0.0,22.9,93.9,1003.6,299.4,0.8,1.8,317.7,0.00,21.9,22.7,"21:32:00",1
"19/09/22","21:50",0.0,23.0,94.0,1003.4,274.8,0.8,1.6,304.9,0.00,22.0,22.8,"21:47:36",1
"19/09/22","22:00",0.0,23.0,94.1,1003.1,327.2,0.5,1.4,335.6,0.00,22.0,22.7,"21:58:48",1
"19/09/22","22:10",0.0,23.0,94.1,1003.1,316.7,1.2,2.0,332.7,0.00,22.0,23.0,"22:04:24",1
"19/09/22","22:20",0.0,23.0,94.2,1002.9,294.2,0.8,1.7,315.7,0.00,22.1,22.9,"22:11:36",1
"19/09/22","22:30",0.2,23.1,94.3,1002.4,300.1,0.8,1.4,316.9,0.00,22.2,22.8,"22:22:16",1
"19/09/22","22:40",0.0,23.0,94.3,1002.4,277.6,0.7,1.0,256.3,0.00,22.1,22.6,"22:33:12",1
"19/09/22","22:50",0.0,23.0,94.4,1002.2,291.4,0.8,1.4,315.5,0.00,22.1,22.9,"22:40:40",1
"19/09/22","23:00",0.0,23.0,94.5,1002.4,302.6,1.1,2.1,329.3,0.00,22.1,22.7,"22:54:24",1
"19/09/22","23:10",0.0,23.1,94.5,1002.4,314.0,1.1,2.8,317.1,0.00,22.2,22.8,"23:02:48",1
"19/09/22","23:20",0.0,23.1,94.4,1002.2,309.7,0.8,1.4,318.1,0.00,22.2,22.8,"23:12:00",1
"19/09/22","23:30",0.0,23.2,94.6,1002.4,317.4,0.7,1.6,325.2,0.00,22.3,22.9,"23:26:56",1
"19/09/22","23:40",0.0,23.4,94.0,1001.7,1.7,0.6,1.4,352.2,0.00,22.4,22.8,"23:30:32",1
"19/09/22","23:50",0.0,23.6,93.8,1001.7,1.8,0.8,1.7,342.0,0.00,22.6,22.8,"23:46:40",1
"19/09/22","24:00",0.0,23.6,93.7,1001.7,5.2,0.7,1.9,336.0,0.00,22.6,22.8,"23:50:40",1
